Time,TemperatureF,DewpointF,PressureIn,WindDirection,WindDirectionDegrees,WindSpeedMPH,WindSpeedGustMPH,Humidity,HourlyPrecipIn,Conditions,Clouds,dailyrainin,SolarRadiationWatts/m^2,SoftwareType,DateUTC
2013-09-28 00:02:00,43.0,41.0,-100.00,NNW,338,0.0,1.0,92,0.00,,,0.02,0.000000,,2013-09-28 08:02:00,
2013-09-28 00:13:00,43.0,41.0,-100.00,NNW,338,0.0,1.0,92,0.00,,,0.02,0.000000,,2013-09-28 08:13:00,
2013-09-28 00:21:00,43.0,41.0,-100.00,NNW,338,0.0,1.0,92,0.00,,,0.02,0.000000,,2013-09-28 08:21:00,
2013-09-28 00:53:00,42.0,40.0,-100.00,NE,40,1.0,2.0,94,0.00,,,0.02,0.000000,,2013-09-28 08:53:00,
2013-09-28 01:01:00,42.0,40.0,-100.00,NE,40,1.0,2.0,94,0.00,,,0.02,0.000000,,2013-09-28 09:01:00,
2013-09-28 01:11:00,42.0,40.0,-100.00,NE,40,1.0,2.0,94,0.00,,,0.02,0.000000,,2013-09-28 09:11:00,
2013-09-28 01:22:00,42.0,40.0,-100.00,NE,40,1.0,2.0,94,0.00,,,0.02,0.000000,,2013-09-28 09:22:00,
2013-09-28 01:54:00,40.0,39.0,-100.00,NE,40,1.0,3.0,95,0.00,,,0.01,0.000000,,2013-09-28 09:54:00,
2013-09-28 02:03:00,40.0,39.0,-100.00,NE,40,1.0,3.0,95,0.00,,,0.01,0.000000,,2013-09-28 10:03:00,
2013-09-28 02:12:00,40.0,39.0,-100.00,NE,40,1.0,3.0,95,0.00,,,0.01,0.000000,,2013-09-28 10:12:00,
2013-09-28 02:22:00,40.0,39.0,-100.00,NE,40,1.0,3.0,95,0.00,,,0.01,0.000000,,2013-09-28 10:22:00,
2013-09-28 02:52:00,38.0,37.0,-100.00,NNE,29,1.0,2.0,96,0.00,,,0.01,0.000000,,2013-09-28 10:52:00,
2013-09-28 03:03:00,38.0,37.0,-100.00,NNE,29,1.0,2.0,96,0.00,,,0.01,0.000000,,2013-09-28 11:03:00,
2013-09-28 03:12:00,38.0,37.0,-100.00,NNE,29,1.0,2.0,96,0.00,,,0.01,0.000000,,2013-09-28 11:12:00,
2013-09-28 03:22:00,38.0,37.0,-100.00,NNE,29,1.0,2.0,96,0.00,,,0.01,0.000000,,2013-09-28 11:22:00,
2013-09-28 03:52:00,38.0,37.0,-100.00,ENE,58,0.0,2.0,96,0.00,,,0.01,0.000000,,2013-09-28 11:52:00,
2013-09-28 04:01:00,38.0,37.0,-100.00,ENE,58,0.0,2.0,96,0.00,,,0.01,0.000000,,2013-09-28 12:01:00,
2013-09-28 04:12:00,38.0,37.0,-100.00,ENE,58,0.0,2.0,96,0.00,,,0.01,0.000000,,2013-09-28 12:12:00,
2013-09-28 04:22:00,38.0,37.0,-100.00,ENE,58,0.0,2.0,96,0.00,,,0.01,0.000000,,2013-09-28 12:22:00,
2013-09-28 04:52:00,37.0,36.0,-100.00,WSW,251,0.0,3.0,96,0.00,,,0.01,0.000000,,2013-09-28 12:52:00,
2013-09-28 05:02:00,37.0,36.0,-100.00,WSW,251,0.0,3.0,96,0.00,,,0.01,0.000000,,2013-09-28 13:02:00,
2013-09-28 05:12:00,37.0,36.0,-100.00,WSW,251,0.0,3.0,96,0.00,,,0.01,0.000000,,2013-09-28 13:12:00,
2013-09-28 05:21:00,37.0,36.0,-100.00,WSW,251,0.0,3.0,96,0.00,,,0.01,0.000000,,2013-09-28 13:21:00,
2013-09-28 05:52:00,36.0,35.0,-100.00,North,4,0.0,1.0,96,0.00,,,-99.99,0.000000,,2013-09-28 13:52:00,
2013-09-28 06:02:00,36.0,35.0,-100.00,North,4,0.0,1.0,96,0.00,,,-99.99,0.000000,,2013-09-28 14:02:00,
2013-09-28 06:12:00,36.0,35.0,-100.00,North,4,0.0,1.0,96,0.00,,,-99.99,0.000000,,2013-09-28 14:12:00,
2013-09-28 06:21:00,36.0,35.0,-100.00,North,4,0.0,1.0,96,0.00,,,-99.99,0.000000,,2013-09-28 14:21:00,
2013-09-28 06:52:00,36.0,35.0,-100.00,NNE,33,0.0,2.0,97,0.00,,,0.00,0.000000,,2013-09-28 14:52:00,
2013-09-28 07:02:00,36.0,35.0,-100.00,NNE,33,0.0,2.0,97,0.00,,,0.00,0.000000,,2013-09-28 15:02:00,
2013-09-28 07:12:00,36.0,35.0,-100.00,NNE,33,0.0,2.0,97,0.00,,,0.00,0.000000,,2013-09-28 15:12:00,
2013-09-28 07:22:00,36.0,35.0,-100.00,NNE,33,0.0,2.0,97,0.00,,,0.00,0.000000,,2013-09-28 15:22:00,
2013-09-28 07:54:00,36.0,35.0,-100.00,NNE,17,0.0,2.0,97,0.00,,,0.00,0.000000,,2013-09-28 15:54:00,
2013-09-28 08:05:00,36.0,35.0,-100.00,NNE,17,0.0,2.0,97,0.00,,,0.00,0.000000,,2013-09-28 16:05:00,
2013-09-28 08:14:00,36.0,35.0,-100.00,NNE,17,0.0,2.0,97,0.00,,,0.00,0.000000,,2013-09-28 16:14:00,
2013-09-28 08:24:00,36.0,35.0,-100.00,NNE,17,0.0,2.0,97,0.00,,,0.00,0.000000,,2013-09-28 16:24:00,
2013-09-28 08:54:00,35.0,34.0,-100.00,NNE,29,0.0,2.0,97,0.00,,,0.00,2.000000,,2013-09-28 16:54:00,
2013-09-28 09:03:00,35.0,34.0,-100.00,NNE,29,0.0,2.0,97,0.00,,,0.00,2.000000,,2013-09-28 17:03:00,
2013-09-28 09:13:00,35.0,34.0,-100.00,NNE,29,0.0,2.0,97,0.00,,,0.00,2.000000,,2013-09-28 17:13:00,
2013-09-28 09:23:00,35.0,34.0,-100.00,NNE,29,0.0,2.0,97,0.00,,,0.00,2.000000,,2013-09-28 17:23:00,
2013-09-28 09:52:00,37.0,36.0,-100.00,North,353,0.0,1.0,97,0.00,,,0.00,43.000000,,2013-09-28 17:52:00,
2013-09-28 10:02:00,37.0,36.0,-100.00,North,353,0.0,1.0,97,0.00,,,0.00,43.000000,,2013-09-28 18:02:00,
2013-09-28 10:12:00,37.0,36.0,-100.00,North,353,0.0,1.0,97,0.00,,,0.00,43.000000,,2013-09-28 18:12:00,
2013-09-28 10:22:00,37.0,36.0,-100.00,North,353,0.0,1.0,97,0.00,,,0.00,43.000000,,2013-09-28 18:22:00,
2013-09-28 10:52:00,41.0,40.0,-100.00,South,184,0.0,2.0,97,0.00,,,0.00,125.000000,,2013-09-28 18:52:00,
2013-09-28 11:02:00,41.0,40.0,-100.00,South,184,0.0,2.0,97,0.00,,,0.00,125.000000,,2013-09-28 19:02:00,
2013-09-28 11:11:00,41.0,40.0,-100.00,South,184,0.0,2.0,97,0.00,,,0.00,125.000000,,2013-09-28 19:11:00,
2013-09-28 11:21:00,41.0,40.0,-100.00,South,184,0.0,2.0,97,0.00,,,0.00,125.000000,,2013-09-28 19:21:00,
2013-09-28 11:52:00,48.0,40.0,-100.00,NE,49,0.0,3.0,75,0.00,,,0.00,179.000000,,2013-09-28 19:52:00,
2013-09-28 12:02:00,48.0,40.0,-100.00,NE,49,0.0,3.0,75,0.00,,,0.00,179.000000,,2013-09-28 20:02:00,
2013-09-28 12:12:00,48.0,40.0,-100.00,NE,49,0.0,3.0,75,0.00,,,0.00,179.000000,,2013-09-28 20:12:00,
2013-09-28 12:22:00,48.0,40.0,-100.00,NE,49,0.0,3.0,75,0.00,,,0.00,179.000000,,2013-09-28 20:22:00,
2013-09-28 12:52:00,52.0,39.0,-100.00,NW,308,2.0,5.0,60,0.00,,,0.00,230.000000,,2013-09-28 20:52:00,
2013-09-28 13:02:00,52.0,39.0,-100.00,NW,308,2.0,5.0,60,0.00,,,0.00,230.000000,,2013-09-28 21:02:00,
2013-09-28 13:12:00,52.0,39.0,-100.00,NW,308,2.0,5.0,60,0.00,,,0.00,230.000000,,2013-09-28 21:12:00,
2013-09-28 13:22:00,52.0,39.0,-100.00,NW,308,2.0,5.0,60,0.00,,,0.00,230.000000,,2013-09-28 21:22:00,
2013-09-28 13:55:00,52.0,39.0,-100.00,West,272,1.0,5.0,62,0.00,,,0.00,209.000000,,2013-09-28 21:55:00,
2013-09-28 14:04:00,52.0,39.0,-100.00,West,272,1.0,5.0,62,0.00,,,0.00,209.000000,,2013-09-28 22:04:00,
2013-09-28 14:13:00,52.0,39.0,-100.00,West,272,1.0,5.0,62,0.00,,,0.00,209.000000,,2013-09-28 22:13:00,
2013-09-28 14:23:00,52.0,39.0,-100.00,West,272,1.0,5.0,62,0.00,,,0.00,209.000000,,2013-09-28 22:23:00,
2013-09-28 14:54:00,56.0,39.0,-100.00,WNW,303,2.0,6.0,52,0.00,,,0.00,311.000000,,2013-09-28 22:54:00,
2013-09-28 15:03:00,56.0,39.0,-100.00,WNW,303,2.0,6.0,52,0.00,,,0.00,311.000000,,2013-09-28 23:03:00,
2013-09-28 15:12:00,56.0,39.0,-100.00,WNW,303,2.0,6.0,52,0.00,,,0.00,311.000000,,2013-09-28 23:12:00,
2013-09-28 15:22:00,56.0,39.0,-100.00,WNW,303,2.0,6.0,52,0.00,,,0.00,311.000000,,2013-09-28 23:22:00,
2013-09-28 15:52:00,53.0,42.0,-100.00,WNW,283,1.0,8.0,65,0.00,,,0.00,246.000000,,2013-09-28 23:52:00,
2013-09-28 16:01:00,53.0,42.0,-100.00,WNW,283,1.0,8.0,65,0.00,,,0.00,246.000000,,2013-09-29 00:01:00,
2013-09-28 16:11:00,53.0,42.0,-100.00,WNW,283,1.0,8.0,65,0.00,,,0.00,246.000000,,2013-09-29 00:11:00,
2013-09-28 16:22:00,53.0,42.0,-100.00,WNW,283,1.0,8.0,65,0.00,,,0.00,246.000000,,2013-09-29 00:22:00,
2013-09-28 16:52:00,55.0,42.0,-100.00,SW,236,1.0,6.0,62,0.00,,,0.00,263.000000,,2013-09-29 00:52:00,
2013-09-28 17:02:00,55.0,42.0,-100.00,SW,236,1.0,6.0,62,0.00,,,0.00,263.000000,,2013-09-29 01:02:00,
2013-09-28 17:12:00,55.0,42.0,-100.00,SW,236,1.0,6.0,62,0.00,,,0.00,263.000000,,2013-09-29 01:12:00,
2013-09-28 17:21:00,55.0,42.0,-100.00,SW,236,1.0,6.0,62,0.00,,,0.00,263.000000,,2013-09-29 01:21:00,
2013-09-28 17:52:00,52.0,42.0,-100.00,WSW,245,2.0,7.0,69,0.00,,,0.00,155.000000,,2013-09-29 01:52:00,
2013-09-28 18:03:00,52.0,42.0,-100.00,WSW,245,2.0,7.0,69,0.00,,,0.00,155.000000,,2013-09-29 02:03:00,
2013-09-28 18:12:00,52.0,42.0,-100.00,WSW,245,2.0,7.0,69,0.00,,,0.00,155.000000,,2013-09-29 02:12:00,
2013-09-28 18:22:00,52.0,42.0,-100.00,WSW,245,2.0,7.0,69,0.00,,,0.00,155.000000,,2013-09-29 02:22:00,
2013-09-28 18:53:00,51.0,42.0,-100.00,WSW,250,1.0,5.0,72,0.00,,,0.00,77.000000,,2013-09-29 02:53:00,
2013-09-28 19:03:00,51.0,42.0,-100.00,WSW,250,1.0,5.0,72,0.00,,,0.00,77.000000,,2013-09-29 03:03:00,
2013-09-28 19:12:00,51.0,42.0,-100.00,WSW,250,1.0,5.0,72,0.00,,,0.00,77.000000,,2013-09-29 03:12:00,
2013-09-28 19:23:00,51.0,42.0,-100.00,WSW,250,1.0,5.0,72,0.00,,,0.00,77.000000,,2013-09-29 03:23:00,
2013-09-28 19:55:00,49.0,41.0,-100.00,WNW,301,0.0,3.0,74,0.00,,,0.00,33.000000,,2013-09-29 03:55:00,
2013-09-28 20:02:00,-999.0,-99.9,-100.00,WNW,301,0.0,3.0,-999,-99.99,,,-99.99,33.000000,,2013-09-29 04:02:00,
2013-09-28 20:14:00,49.0,41.0,-100.00,WNW,301,0.0,3.0,74,0.00,,,0.00,33.000000,,2013-09-29 04:14:00,
2013-09-28 20:23:00,49.0,41.0,-100.00,WNW,301,0.0,3.0,74,0.00,,,0.00,33.000000,,2013-09-29 04:23:00,
2013-09-28 20:54:00,49.0,34.0,-100.00,NNW,327,2.0,5.0,56,0.00,,,0.00,2.000000,,2013-09-29 04:54:00,
2013-09-28 21:03:00,49.0,34.0,-100.00,NNW,327,2.0,5.0,56,0.00,,,0.00,2.000000,,2013-09-29 05:03:00,
2013-09-28 21:13:00,49.0,34.0,-100.00,NNW,327,2.0,5.0,56,0.00,,,0.00,2.000000,,2013-09-29 05:13:00,
2013-09-28 21:22:00,49.0,34.0,-100.00,NNW,327,2.0,5.0,56,0.00,,,0.00,2.000000,,2013-09-29 05:22:00,
2013-09-28 21:53:00,47.0,33.0,-100.00,NNW,342,1.0,6.0,59,0.00,,,0.00,0.000000,,2013-09-29 05:53:00,
2013-09-28 22:03:00,47.0,33.0,-100.00,NNW,342,1.0,6.0,59,0.00,,,0.00,0.000000,,2013-09-29 06:03:00,
2013-09-28 22:12:00,47.0,33.0,-100.00,NNW,342,1.0,6.0,59,0.00,,,0.00,0.000000,,2013-09-29 06:12:00,
2013-09-28 22:22:00,47.0,33.0,-100.00,NNW,342,1.0,6.0,59,0.00,,,0.00,0.000000,,2013-09-29 06:22:00,
2013-09-28 22:52:00,47.0,34.0,-100.00,North,11,2.0,6.0,61,0.00,,,0.00,0.000000,,2013-09-29 06:52:00,
2013-09-28 23:01:00,47.0,34.0,-100.00,North,11,2.0,6.0,61,0.00,,,0.00,0.000000,,2013-09-29 07:01:00,
2013-09-28 23:11:00,47.0,34.0,-100.00,North,11,2.0,6.0,61,0.00,,,0.00,0.000000,,2013-09-29 07:11:00,
2013-09-28 23:22:00,47.0,34.0,-100.00,North,11,2.0,6.0,61,0.00,,,0.00,0.000000,,2013-09-29 07:22:00,
2013-09-28 23:52:00,46.0,35.0,-100.00,North,7,1.0,5.0,65,0.00,,,0.00,0.000000,,2013-09-29 07:52:00,